Showing default

IRIDIUM 104, 41922

Orbit data source: Space-Track

IRIDIUM 104, 41922 is a payload satellite owned by Iridium (US) in LEO that was launched on Sat, 14 Jan 2017 UTC via an FALCON 9 launch vehicle from the Air Force Western Test Range (AFWTR). Payload-class satellites include a variety of spacecraft equipped with specific instruments for various scientific and technological missions. These include communications satellites like Starlink; space stations such as the ISS; scientific satellites like the Hubble; Earth observation satellites from companies like Planet Labs, Umbra, and HawkEye 360; GPS; miniature CubeSats for education and research; and military/defense satellites.

Loading next visibility...
Identifier
41922, 2017-003F
Orbit
LEO
Country
Flag of USUS
Related business
Manufacturer
OATK SSG Gilbert
Mission
Operational Commercial Communications
Bus & Motor
ELITEBUS, Unknown motor
Mass
860 kg wet, 700 kg dry
Launch date (UTC)
2017-01-14 (9 years ago)
Launch vehicle
FALCON 9
Launch site
Air Force Western Test Range (AFWTR)
Object type
Payload
Rocket body
Debris
Shape & HBR
Trap Box + 2 Pan, 4.8 m
Radar Cross Section
10.154 m², Large (>1 m²)

Expand to show TLE details & history
Last TLE update: 12 hours ago

TLE from 12 hours ago
0 IRIDIUM 104
1 41922U 17003F   25353.48594962 -.00000087  00000-0 -38152-4 0  9994
2 41922  86.3994 163.5616 0001509  90.0626 270.0743 14.34217167467517
Epoch: 2025-12-19T11:39Z
TLE epoch observation values (Epoch: 2025-12-19T11:39:46.047Z)
Latitude
0.00002°
Longitude
-99.70668°
Altitude
780.719 km
Speed
7.463 km/s
True Right ascension
10h 54m 14s
True Declination
0° 00' 00"
Sunlit
Object was in daylight at epoch
Visualization orbit readout
Latitude
Unknown
Longitude
Unknown
Altitude
Unknown
Speed
Unknown
Apparent Right ascension
Unknown
Apparent Declination
Unknown
Sunlit
N/A
Visualization observer readout
Local Sidereal Time
22:10:26
Azimuth
Unknown
Elevation
Unknown
Doppler factor
Unknown
Orbital elements
Apogee altitude
775.713 km
Perigee altitude
773.554 km
Semi-major axis
7,152.771 km
Eccentricity
0.00015
Inclination
86.3994°
RAAN
163.5616°
Arg. of periapsis
90.0626°
True anomaly
270.05701°
Mean anomaly
270.0743°
Eccentric anomaly
270.06565°
Mean motion
3.58783 °/min
Orbital period
100.34 mins
BSTAR
-0.000038152
Loading maneuver chart data...
Computing Atmospheric mass density...
Loading historical data...
Loading historical data...
Loading historical data...
Loading historical data...
Loading historical data...
Loading historical data...
Loading historical data...

Documentation

Showing up to 5 results
|